JBU1781 KBOS-KVPS

Flight info

Callsign JBU1781
Flight time 2h 49m
Altitude 36000
Route BLZZR6 BLZZR BAF Q448 PTW BYRDD HAAGN PENSY EMI CSN MOL FLASK REAVS ODF THRSR MGMRY CORKY
Aircraft A320/M-SDE3FGHIRWY/LB1

Departure

Time 2026-05-04 16:57
Airport Boston Logan International Airport (KBOS)

Arrival

Time 2026-05-04 19:46
Airport Destin-Fort Walton Beach Airport (KVPS)
Time Latitude Longitude Altitude Speed Heading
2026-05-04 16:19 42.36637 -71.01535 30 ft 0 kts 238°
2026-05-04 16:46 42.36670 -71.01477 29 ft 4 kts 225°
2026-05-04 16:46 42.36669 -71.01429 25 ft 4 kts 356°
2026-05-04 16:47 42.36690 -71.01395 27 ft 4 kts 66°
2026-05-04 16:47 42.36696 -71.01361 30 ft 0 kts 80°
2026-05-04 16:50 42.36699 -71.01340 27 ft 3 kts 80°
2026-05-04 16:50 42.36694 -71.01253 29 ft 7 kts 122°
2026-05-04 16:51 42.36721 -71.01149 27 ft 9 kts 14°
2026-05-04 16:51 42.36785 -71.01152 27 ft 10 kts 338°
2026-05-04 16:51 42.36905 -71.01204 25 ft 11 kts 43°
2026-05-04 16:52 42.37026 -71.01085 27 ft 11 kts 25°
2026-05-04 16:52 42.37099 -71.01038 29 ft 12 kts 26°
2026-05-04 16:53 42.37264 -71.00930 25 ft 15 kts 26°
2026-05-04 16:53 42.37588 -71.00769 28 ft 18 kts 19°
2026-05-04 16:54 42.37712 -71.00710 27 ft 19 kts 19°
2026-05-04 16:55 42.37832 -71.00572 26 ft 0 kts 109°
2026-05-04 16:55 42.37831 -71.00567 28 ft 2 kts 109°
2026-05-04 16:56 42.37811 -71.00493 27 ft 6 kts 112°
2026-05-04 16:56 42.36730 -71.00987 27 ft 133 kts 200°
2026-05-04 16:57 42.35748 -71.01466 274 ft 154 kts 205°
2026-05-04 16:57 42.33667 -71.01217 1507 ft 184 kts 142°
2026-05-04 16:58 42.31266 -70.96376 2818 ft 235 kts 107°
2026-05-04 16:58 42.31302 -70.94102 3302 ft 251 kts 79°
2026-05-04 16:59 42.32106 -70.89434 4570 ft 256 kts 82°
2026-05-04 17:00 42.32495 -70.79724 6944 ft 267 kts 110°
2026-05-04 17:00 42.29480 -70.73744 8639 ft 261 kts 154°
2026-05-04 17:01 42.26092 -70.72100 9691 ft 263 kts 183°
2026-05-04 17:01 42.22388 -70.72772 10393 ft 282 kts 202°
2026-05-04 17:02 42.19249 -70.75642 11571 ft 276 kts 237°
2026-05-04 17:02 42.17796 -70.80597 12155 ft 301 kts 262°
2026-05-04 17:03 42.17452 -70.83400 12734 ft 306 kts 261°
2026-05-04 17:03 42.17073 -70.86234 13377 ft 309 kts 260°
2026-05-04 17:03 42.16269 -70.92000 14507 ft 317 kts 261°
2026-05-04 17:04 42.16175 -70.96986 15426 ft 321 kts 276°
2026-05-04 17:04 42.16625 -71.02992 16522 ft 327 kts 276°
2026-05-04 17:05 42.17084 -71.09190 17643 ft 333 kts 276°
2026-05-04 17:05 42.17534 -71.15469 18686 ft 340 kts 276°
2026-05-04 17:06 42.17985 -71.21859 19718 ft 345 kts 276°
2026-05-04 17:06 42.18214 -71.25047 20238 ft 347 kts 276°
2026-05-04 17:07 42.18683 -71.31571 21239 ft 352 kts 276°
2026-05-04 17:07 42.18840 -71.33802 21552 ft 354 kts 276°
2026-05-04 17:07 42.19156 -71.38245 22194 ft 358 kts 277°
2026-05-04 17:07 42.19392 -71.41597 22680 ft 360 kts 277°
2026-05-04 17:08 42.19625 -71.44973 23167 ft 363 kts 277°
2026-05-04 17:08 42.20094 -71.51753 24006 ft 368 kts 277°
2026-05-04 17:08 42.20330 -71.55196 24391 ft 370 kts 277°
2026-05-04 17:09 42.20565 -71.58660 24751 ft 372 kts 277°
2026-05-04 17:09 42.20805 -71.62198 25115 ft 375 kts 277°
2026-05-04 17:09 42.21039 -71.65663 25481 ft 377 kts 277°
2026-05-04 17:10 42.21514 -71.72786 26240 ft 380 kts 277°
2026-05-04 17:10 42.21321 -71.83581 27310 ft 388 kts 269°
2026-05-04 17:11 42.21125 -71.87219 27664 ft 390 kts 269°
2026-05-04 17:11 42.20928 -71.90874 28014 ft 391 kts 269°
2026-05-04 17:11 42.20520 -71.98233 28689 ft 395 kts 269°
2026-05-04 17:12 42.20311 -72.01937 29025 ft 397 kts 269°
2026-05-04 17:12 42.19888 -72.09396 29669 ft 401 kts 269°
2026-05-04 17:13 42.19248 -72.20650 30720 ft 401 kts 269°
2026-05-04 17:14 42.18603 -72.31818 31821 ft 399 kts 268°
2026-05-04 17:14 42.18382 -72.35599 32199 ft 399 kts 268°
2026-05-04 17:14 42.17943 -72.42996 32931 ft 398 kts 268°
2026-05-04 17:15 42.17719 -72.46709 33301 ft 398 kts 268°
2026-05-04 17:15 42.17268 -72.54135 33997 ft 397 kts 267°
2026-05-04 17:16 42.16816 -72.61548 34537 ft 396 kts 268°
2026-05-04 17:16 42.15223 -72.72436 35307 ft 402 kts 248°
2026-05-04 17:17 42.13807 -72.75701 35542 ft 406 kts 237°
2026-05-04 17:17 42.08524 -72.84738 35878 ft 415 kts 236°
2026-05-04 17:18 42.06726 -72.87808 35879 ft 420 kts 236°
2026-05-04 17:19 41.99374 -73.00369 35912 ft 431 kts 236°
2026-05-04 17:20 41.90385 -73.11168 35922 ft 444 kts 217°
2026-05-04 17:20 41.82524 -73.17757 35947 ft 444 kts 217°
2026-05-04 17:21 41.72036 -73.26537 35949 ft 445 kts 217°
2026-05-04 17:22 41.66840 -73.31004 35946 ft 441 kts 223°
2026-05-04 17:23 41.58616 -73.42842 35942 ft 435 kts 233°
2026-05-04 17:24 41.52640 -73.51986 35934 ft 436 kts 233°
2026-05-04 17:25 41.44672 -73.64169 35959 ft 436 kts 233°
2026-05-04 17:26 41.36685 -73.76340 35943 ft 437 kts 233°
2026-05-04 17:27 41.26576 -73.91390 35917 ft 438 kts 232°
2026-05-04 17:28 41.18403 -74.03378 35955 ft 438 kts 233°
2026-05-04 17:29 41.06590 -74.21778 35962 ft 435 kts 236°
2026-05-04 17:31 40.97035 -74.37358 35962 ft 436 kts 235°
2026-05-04 17:32 40.87365 -74.52850 35978 ft 438 kts 235°
2026-05-04 17:33 40.79615 -74.65261 35982 ft 438 kts 235°
2026-05-04 17:34 40.71840 -74.77640 35959 ft 438 kts 234°
2026-05-04 17:35 40.62111 -74.93065 35974 ft 438 kts 234°
2026-05-04 17:36 40.58211 -74.99223 35978 ft 438 kts 234°
2026-05-04 17:36 40.54318 -75.05371 35981 ft 437 kts 234°
2026-05-04 17:37 40.50440 -75.11536 35983 ft 437 kts 235°
2026-05-04 17:37 40.46565 -75.17699 35994 ft 438 kts 235°
2026-05-04 17:38 40.42678 -75.23859 35992 ft 438 kts 235°
2026-05-04 17:38 40.38779 -75.30009 35983 ft 438 kts 234°
2026-05-04 17:39 40.32937 -75.39203 35999 ft 437 kts 234°
2026-05-04 17:39 40.29046 -75.45327 36012 ft 437 kts 234°
2026-05-04 17:40 40.25142 -75.51451 36009 ft 438 kts 234°
2026-05-04 17:40 40.21368 -75.57697 35994 ft 435 kts 241°
2026-05-04 17:41 40.18064 -75.64313 36007 ft 435 kts 241°
2026-05-04 17:41 40.14746 -75.70921 36011 ft 435 kts 240°
2026-05-04 17:42 40.11415 -75.77517 36016 ft 435 kts 240°
2026-05-04 17:42 40.08079 -75.84110 36001 ft 435 kts 241°
2026-05-04 17:43 40.04745 -75.90704 35977 ft 436 kts 241°
2026-05-04 17:43 40.01401 -75.97300 35990 ft 435 kts 240°
2026-05-04 17:44 39.98054 -76.03878 36005 ft 435 kts 240°
2026-05-04 17:44 39.94706 -76.10445 35992 ft 435 kts 240°
2026-05-04 17:45 39.91354 -76.16998 35992 ft 435 kts 240°
2026-05-04 17:45 39.88000 -76.23548 35989 ft 435 kts 240°
2026-05-04 17:46 39.85209 -76.29007 35996 ft 436 kts 240°
2026-05-04 17:46 39.81841 -76.35572 35995 ft 436 kts 240°
2026-05-04 17:47 39.78462 -76.42133 35994 ft 437 kts 240°
2026-05-04 17:47 39.75084 -76.48689 36004 ft 437 kts 240°
2026-05-04 17:48 39.71694 -76.55248 35990 ft 437 kts 240°
2026-05-04 17:48 39.68303 -76.61800 35978 ft 437 kts 240°
2026-05-04 17:49 39.64900 -76.68345 35990 ft 437 kts 240°
2026-05-04 17:49 39.61499 -76.74877 36002 ft 437 kts 240°
2026-05-04 17:50 39.58102 -76.81410 36010 ft 437 kts 240°
2026-05-04 17:50 39.54698 -76.87924 36006 ft 437 kts 240°
2026-05-04 17:51 39.51293 -76.94440 35977 ft 437 kts 240°
2026-05-04 17:51 39.47229 -77.00268 35998 ft 445 kts 224°
2026-05-04 17:52 39.42414 -77.05309 36014 ft 445 kts 224°
2026-05-04 17:52 39.37593 -77.10389 36020 ft 444 kts 224°
2026-05-04 17:53 39.32832 -77.15404 36034 ft 444 kts 224°
2026-05-04 17:53 39.28040 -77.20421 36033 ft 443 kts 224°
2026-05-04 17:54 39.23253 -77.25423 36033 ft 443 kts 224°
2026-05-04 17:54 39.18466 -77.30420 36031 ft 442 kts 224°
2026-05-04 17:55 39.13679 -77.35407 36030 ft 442 kts 224°
2026-05-04 17:55 39.08899 -77.40383 35996 ft 442 kts 224°
2026-05-04 17:56 39.04118 -77.45338 36009 ft 441 kts 224°
2026-05-04 17:56 38.99357 -77.50286 36022 ft 440 kts 224°
2026-05-04 17:57 38.94595 -77.55225 36023 ft 440 kts 224°
2026-05-04 17:57 38.89832 -77.60143 35976 ft 439 kts 224°
2026-05-04 17:58 38.85061 -77.65059 36010 ft 439 kts 224°
2026-05-04 17:58 38.80300 -77.69955 36014 ft 439 kts 224°
2026-05-04 17:59 38.75532 -77.74848 36014 ft 439 kts 224°
2026-05-04 18:00 38.68378 -77.82179 35990 ft 438 kts 224°
2026-05-04 18:00 38.63802 -77.87266 36007 ft 431 kts 233°
2026-05-04 18:01 38.60167 -77.93278 36016 ft 427 kts 238°
2026-05-04 18:01 38.56615 -77.99340 36010 ft 426 kts 238°
2026-05-04 18:02 38.51270 -78.08430 35989 ft 427 kts 238°
2026-05-04 18:02 38.47701 -78.14476 35998 ft 426 kts 238°
2026-05-04 18:03 38.44133 -78.20511 36000 ft 426 kts 238°
2026-05-04 18:03 38.40566 -78.26540 36003 ft 426 kts 238°
2026-05-04 18:04 38.36997 -78.32559 36005 ft 425 kts 238°
2026-05-04 18:05 38.31643 -78.41568 35977 ft 425 kts 238°
2026-05-04 18:05 38.28068 -78.47568 35999 ft 425 kts 237°
2026-05-04 18:06 38.22702 -78.56539 36010 ft 424 kts 237°
2026-05-04 18:06 38.19127 -78.62511 36013 ft 424 kts 237°
2026-05-04 18:07 38.15551 -78.68479 36012 ft 424 kts 237°
2026-05-04 18:07 38.11998 -78.74400 36005 ft 424 kts 237°
2026-05-04 18:08 38.08391 -78.80390 36025 ft 424 kts 237°
2026-05-04 18:08 38.04836 -78.86277 36028 ft 423 kts 237°
2026-05-04 18:09 37.97677 -78.98112 36021 ft 422 kts 237°
2026-05-04 18:10 37.94103 -79.04020 36020 ft 422 kts 237°
2026-05-04 18:10 37.90520 -79.09915 36012 ft 422 kts 237°
2026-05-04 18:11 37.86726 -79.15616 36014 ft 424 kts 233°
2026-05-04 18:11 37.82701 -79.21086 36007 ft 425 kts 232°
2026-05-04 18:12 37.78659 -79.26541 36001 ft 425 kts 232°
2026-05-04 18:12 37.74670 -79.32044 35998 ft 424 kts 233°
2026-05-04 18:13 37.70703 -79.37566 35970 ft 424 kts 233°
2026-05-04 18:14 37.64766 -79.45807 36007 ft 422 kts 233°
2026-05-04 18:14 37.60805 -79.51265 36020 ft 421 kts 233°
2026-05-04 18:15 37.52893 -79.62141 36047 ft 421 kts 233°
2026-05-04 18:16 37.48939 -79.67570 36027 ft 420 kts 233°
2026-05-04 18:16 37.44988 -79.72988 36053 ft 420 kts 233°
2026-05-04 18:17 37.39062 -79.81094 36060 ft 419 kts 233°
2026-05-04 18:18 37.33133 -79.89173 36063 ft 419 kts 233°
2026-05-04 18:18 37.29172 -79.94567 36065 ft 419 kts 233°
2026-05-04 18:19 37.23245 -80.02619 36071 ft 418 kts 233°
2026-05-04 18:19 37.19296 -80.07969 36072 ft 417 kts 233°
2026-05-04 18:20 37.15353 -80.13310 36081 ft 417 kts 233°
2026-05-04 18:20 37.11432 -80.18603 36081 ft 417 kts 233°
2026-05-04 18:21 37.07461 -80.23967 36074 ft 417 kts 233°
2026-05-04 18:21 37.03515 -80.29288 36072 ft 417 kts 233°
2026-05-04 18:22 36.99567 -80.34587 36075 ft 416 kts 233°
2026-05-04 18:22 36.95648 -80.39854 36068 ft 416 kts 233°
2026-05-04 18:23 36.91700 -80.45146 36062 ft 416 kts 233°
2026-05-04 18:23 36.87750 -80.50431 36051 ft 416 kts 233°
2026-05-04 18:24 36.83797 -80.55708 36030 ft 416 kts 233°
2026-05-04 18:24 36.79844 -80.60982 36037 ft 416 kts 233°
2026-05-04 18:25 36.75894 -80.66247 36081 ft 416 kts 233°
2026-05-04 18:25 36.71934 -80.71511 36091 ft 416 kts 233°
2026-05-04 18:26 36.67966 -80.76767 36094 ft 416 kts 233°
2026-05-04 18:26 36.64000 -80.82020 36088 ft 416 kts 233°
2026-05-04 18:27 36.60034 -80.87269 36055 ft 416 kts 232°
2026-05-04 18:27 36.56064 -80.92516 36034 ft 416 kts 232°
2026-05-04 18:28 36.52088 -80.97761 36052 ft 417 kts 232°
2026-05-04 18:28 36.48104 -81.03004 36069 ft 417 kts 232°
2026-05-04 18:29 36.44114 -81.08243 36088 ft 417 kts 232°
2026-05-04 18:29 36.40120 -81.13477 36075 ft 417 kts 232°
2026-05-04 18:30 36.34802 -81.20431 36099 ft 417 kts 232°
2026-05-04 18:31 36.30808 -81.25660 36109 ft 417 kts 232°
2026-05-04 18:31 36.26809 -81.30885 36100 ft 418 kts 232°
2026-05-04 18:32 36.22804 -81.36097 36095 ft 418 kts 232°
2026-05-04 18:32 36.18790 -81.41314 36049 ft 418 kts 232°
2026-05-04 18:33 36.14772 -81.46526 36054 ft 419 kts 232°
2026-05-04 18:33 36.10753 -81.51740 36056 ft 419 kts 232°
2026-05-04 18:34 36.06729 -81.56949 36053 ft 419 kts 232°
2026-05-04 18:34 36.02701 -81.62151 36047 ft 419 kts 232°
2026-05-04 18:35 35.98705 -81.67312 36059 ft 419 kts 232°
2026-05-04 18:35 35.94672 -81.72515 36023 ft 419 kts 231°
2026-05-04 18:36 35.90645 -81.77696 36038 ft 419 kts 231°
2026-05-04 18:36 35.86616 -81.82877 36055 ft 418 kts 231°
2026-05-04 18:37 35.82582 -81.88046 36090 ft 418 kts 231°
2026-05-04 18:37 35.78550 -81.93211 36081 ft 418 kts 231°
2026-05-04 18:38 35.74518 -81.98371 36075 ft 418 kts 231°
2026-05-04 18:38 35.70476 -82.03517 36076 ft 418 kts 231°
2026-05-04 18:39 35.66436 -82.08663 36077 ft 418 kts 231°
2026-05-04 18:39 35.62398 -82.13806 36082 ft 418 kts 231°
2026-05-04 18:40 35.58356 -82.18936 36079 ft 418 kts 231°
2026-05-04 18:40 35.54313 -82.24068 36078 ft 418 kts 231°
2026-05-04 18:41 35.50296 -82.29163 36057 ft 418 kts 231°
2026-05-04 18:41 35.46245 -82.34277 36063 ft 418 kts 231°
2026-05-04 18:42 35.42189 -82.39382 36058 ft 418 kts 231°
2026-05-04 18:42 35.38142 -82.44487 36071 ft 418 kts 231°
2026-05-04 18:43 35.34088 -82.49598 36072 ft 418 kts 231°
2026-05-04 18:43 35.30028 -82.54704 36114 ft 418 kts 231°
2026-05-04 18:44 35.25965 -82.59806 36081 ft 418 kts 231°
2026-05-04 18:44 35.21899 -82.64903 36082 ft 419 kts 231°
2026-05-04 18:45 35.17828 -82.69997 36076 ft 419 kts 231°
2026-05-04 18:45 35.13754 -82.75088 36082 ft 419 kts 231°
2026-05-04 18:46 35.09684 -82.80171 36075 ft 419 kts 231°
2026-05-04 18:46 35.05602 -82.85247 36076 ft 419 kts 230°
2026-05-04 18:47 35.01516 -82.90316 36073 ft 419 kts 230°
2026-05-04 18:47 34.97432 -82.95385 36080 ft 419 kts 231°
2026-05-04 18:48 34.93352 -83.00452 36084 ft 419 kts 230°
2026-05-04 18:48 34.89263 -83.05509 36091 ft 419 kts 230°
2026-05-04 18:49 34.85205 -83.10532 36091 ft 419 kts 230°
2026-05-04 18:49 34.81120 -83.15585 36093 ft 419 kts 230°
2026-05-04 18:50 34.77030 -83.20630 36086 ft 419 kts 230°
2026-05-04 18:50 34.72933 -83.25660 36101 ft 419 kts 230°
2026-05-04 18:51 34.68789 -83.30703 36108 ft 419 kts 229°
2026-05-04 18:51 34.64479 -83.35492 36110 ft 421 kts 226°
2026-05-04 18:52 34.60054 -83.40161 36115 ft 421 kts 226°
2026-05-04 18:52 34.55676 -83.44813 36066 ft 421 kts 227°
2026-05-04 18:53 34.51300 -83.49526 36086 ft 421 kts 227°
2026-05-04 18:53 34.46932 -83.54246 36096 ft 421 kts 227°
2026-05-04 18:54 34.42564 -83.58957 36095 ft 421 kts 227°
2026-05-04 18:54 34.38187 -83.63665 36119 ft 421 kts 227°
2026-05-04 18:55 34.33807 -83.68371 36131 ft 421 kts 227°
2026-05-04 18:55 34.27227 -83.75416 36113 ft 421 kts 227°
2026-05-04 18:56 34.22834 -83.80112 36125 ft 422 kts 227°
2026-05-04 18:56 34.18438 -83.84810 36131 ft 422 kts 227°
2026-05-04 18:57 34.14042 -83.89497 36129 ft 422 kts 227°
2026-05-04 18:57 34.09640 -83.94189 36110 ft 423 kts 226°
2026-05-04 18:58 34.05224 -83.98882 36092 ft 423 kts 226°
2026-05-04 18:58 34.00807 -84.03572 36110 ft 423 kts 226°
2026-05-04 18:59 33.96390 -84.08262 36118 ft 423 kts 226°
2026-05-04 18:59 33.91969 -84.12944 36118 ft 423 kts 226°
2026-05-04 19:00 33.87545 -84.17614 36118 ft 423 kts 226°
2026-05-04 19:00 33.83115 -84.22282 36100 ft 423 kts 226°
2026-05-04 19:01 33.78690 -84.26950 36086 ft 423 kts 227°
2026-05-04 19:01 33.74295 -84.31575 36101 ft 423 kts 227°
2026-05-04 19:02 33.69872 -84.36220 36117 ft 423 kts 227°
2026-05-04 19:02 33.65441 -84.40866 36123 ft 423 kts 227°
2026-05-04 19:03 33.61268 -84.45767 36116 ft 417 kts 234°
2026-05-04 19:03 33.57457 -84.51018 36110 ft 417 kts 234°
2026-05-04 19:04 33.53641 -84.56261 36093 ft 417 kts 234°
2026-05-04 19:04 33.49819 -84.61497 36103 ft 417 kts 234°
2026-05-04 19:05 33.45993 -84.66719 36105 ft 417 kts 234°
2026-05-04 19:05 33.42162 -84.71944 36118 ft 418 kts 234°
2026-05-04 19:06 33.38327 -84.77174 36115 ft 418 kts 234°
2026-05-04 19:06 33.34486 -84.82406 36118 ft 419 kts 234°
2026-05-04 19:07 33.30645 -84.87633 36119 ft 419 kts 234°
2026-05-04 19:07 33.26795 -84.92863 36116 ft 419 kts 234°
2026-05-04 19:08 33.22939 -84.98088 36116 ft 419 kts 234°
2026-05-04 19:08 33.19078 -85.03307 36115 ft 419 kts 234°
2026-05-04 19:09 33.15214 -85.08527 36109 ft 420 kts 234°
2026-05-04 19:09 33.11342 -85.13748 36104 ft 420 kts 234°
2026-05-04 19:10 33.07467 -85.18965 36106 ft 421 kts 234°
2026-05-04 19:10 33.03587 -85.24185 36083 ft 420 kts 234°
2026-05-04 19:11 32.99712 -85.29404 36096 ft 420 kts 234°
2026-05-04 19:11 32.95836 -85.34618 36101 ft 420 kts 234°
2026-05-04 19:12 32.90004 -85.42417 36107 ft 420 kts 234°
2026-05-04 19:13 32.86114 -85.47615 36113 ft 421 kts 234°
2026-05-04 19:13 32.82221 -85.52811 36109 ft 421 kts 234°
2026-05-04 19:14 32.78322 -85.58012 36084 ft 421 kts 235°
2026-05-04 19:14 32.74423 -85.63204 36105 ft 421 kts 235°
2026-05-04 19:15 32.70551 -85.68357 36108 ft 421 kts 235°
2026-05-04 19:15 32.66649 -85.73536 36105 ft 421 kts 235°
2026-05-04 19:16 32.62743 -85.78707 36100 ft 421 kts 235°
2026-05-04 19:16 32.58843 -85.83871 36093 ft 421 kts 235°
2026-05-04 19:17 32.54937 -85.89036 36053 ft 420 kts 235°
2026-05-04 19:17 32.51038 -85.94191 36073 ft 419 kts 236°
2026-05-04 19:18 32.47798 -85.98467 36083 ft 419 kts 236°
2026-05-04 19:18 32.43874 -86.03622 36088 ft 419 kts 236°
2026-05-04 19:19 32.39977 -86.08743 36086 ft 418 kts 236°
2026-05-04 19:19 32.36086 -86.13862 36090 ft 418 kts 236°
2026-05-04 19:20 32.32215 -86.18939 36082 ft 418 kts 236°
2026-05-04 19:20 32.28312 -86.24042 36044 ft 418 kts 237°
2026-05-04 19:21 32.24242 -86.28988 36094 ft 429 kts 227°
2026-05-04 19:21 32.21706 -86.30922 36100 ft 443 kts 216°
2026-05-04 19:21 32.18789 -86.32268 36102 ft 459 kts 205°
2026-05-04 19:21 32.15597 -86.32935 36102 ft 471 kts 196°
2026-05-04 19:22 32.12349 -86.33374 35916 ft 467 kts 196°
2026-05-04 19:22 32.09128 -86.33802 35667 ft 465 kts 196°
2026-05-04 19:22 32.05922 -86.34237 35401 ft 463 kts 197°
2026-05-04 19:22 32.02725 -86.34681 35155 ft 462 kts 197°
2026-05-04 19:23 31.99531 -86.35130 34838 ft 463 kts 197°
2026-05-04 19:23 31.96334 -86.35581 34420 ft 463 kts 197°
2026-05-04 19:23 31.93109 -86.36039 33422 ft 470 kts 197°
2026-05-04 19:23 31.89859 -86.36499 32538 ft 471 kts 196°
2026-05-04 19:24 31.86608 -86.36951 31916 ft 467 kts 195°
2026-05-04 19:24 31.83396 -86.37386 31345 ft 463 kts 195°
2026-05-04 19:24 31.80209 -86.37817 30768 ft 459 kts 195°
2026-05-04 19:24 31.77049 -86.38247 30187 ft 455 kts 195°
2026-05-04 19:25 31.73920 -86.38674 29510 ft 451 kts 195°
2026-05-04 19:25 31.70823 -86.39097 28980 ft 445 kts 195°
2026-05-04 19:25 31.67763 -86.39519 28412 ft 440 kts 195°
2026-05-04 19:25 31.64740 -86.39938 27848 ft 435 kts 195°
2026-05-04 19:26 31.61749 -86.40357 27283 ft 431 kts 195°
2026-05-04 19:26 31.58787 -86.40770 26731 ft 427 kts 194°
2026-05-04 19:26 31.55850 -86.41174 26210 ft 423 kts 194°
2026-05-04 19:26 31.52941 -86.41574 25684 ft 419 kts 194°
2026-05-04 19:27 31.50054 -86.41971 25093 ft 417 kts 193°
2026-05-04 19:27 31.47181 -86.42365 24568 ft 414 kts 193°
2026-05-04 19:27 31.44334 -86.42755 24103 ft 410 kts 193°
2026-05-04 19:27 31.41511 -86.43141 23627 ft 407 kts 193°
2026-05-04 19:28 31.38713 -86.43522 23107 ft 404 kts 193°
2026-05-04 19:28 31.35938 -86.43899 22659 ft 399 kts 192°
2026-05-04 19:28 31.33190 -86.44274 22190 ft 396 kts 192°
2026-05-04 19:28 31.30461 -86.44647 21730 ft 393 kts 192°
2026-05-04 19:29 31.27746 -86.45018 21261 ft 391 kts 192°
2026-05-04 19:29 31.25051 -86.45386 20780 ft 389 kts 192°
2026-05-04 19:29 31.22376 -86.45752 20305 ft 387 kts 191°
2026-05-04 19:29 31.19705 -86.46121 19804 ft 385 kts 191°
2026-05-04 19:30 31.17049 -86.46488 19308 ft 383 kts 191°
2026-05-04 19:30 31.14403 -86.46852 18800 ft 382 kts 191°
2026-05-04 19:30 31.11768 -86.47211 18288 ft 381 kts 190°
2026-05-04 19:30 31.09144 -86.47568 17731 ft 378 kts 190°
2026-05-04 19:31 31.06548 -86.47918 17225 ft 372 kts 190°
2026-05-04 19:31 31.04012 -86.48258 16723 ft 362 kts 189°
2026-05-04 19:31 31.01538 -86.48591 16233 ft 354 kts 189°
2026-05-04 19:31 30.99119 -86.48919 15751 ft 346 kts 189°
2026-05-04 19:32 30.96739 -86.49242 15279 ft 344 kts 189°
2026-05-04 19:32 30.94399 -86.49562 14811 ft 343 kts 189°
2026-05-04 19:32 30.92035 -86.49889 14353 ft 342 kts 189°
2026-05-04 19:32 30.89675 -86.50213 13870 ft 341 kts 189°
2026-05-04 19:33 30.87322 -86.50532 13365 ft 340 kts 188°
2026-05-04 19:33 30.84981 -86.50847 12887 ft 337 kts 188°
2026-05-04 19:33 30.82643 -86.50878 12420 ft 338 kts 176°
2026-05-04 19:33 30.80343 -86.50307 11925 ft 340 kts 163°
2026-05-04 19:34 30.78144 -86.49303 11444 ft 339 kts 160°
2026-05-04 19:34 30.75958 -86.48286 10963 ft 338 kts 160°
2026-05-04 19:34 30.73780 -86.47278 10484 ft 337 kts 160°
2026-05-04 19:34 30.71632 -86.46285 10313 ft 326 kts 160°
2026-05-04 19:35 30.69560 -86.45324 10166 ft 315 kts 160°
2026-05-04 19:35 30.67557 -86.44395 10047 ft 305 kts 160°
2026-05-04 19:35 30.65613 -86.43500 9867 ft 297 kts 160°
2026-05-04 19:35 30.63680 -86.42613 9417 ft 299 kts 160°
2026-05-04 19:36 30.61766 -86.41734 9147 ft 293 kts 160°
2026-05-04 19:36 30.59883 -86.40867 8648 ft 289 kts 160°
2026-05-04 19:36 30.58022 -86.40011 8068 ft 286 kts 160°
2026-05-04 19:36 30.56184 -86.39162 7528 ft 282 kts 159°
2026-05-04 19:37 30.54368 -86.38325 6941 ft 279 kts 159°
2026-05-04 19:37 30.52572 -86.37499 6383 ft 276 kts 159°
2026-05-04 19:37 30.50797 -86.36683 5814 ft 273 kts 159°
2026-05-04 19:37 30.49042 -86.35875 5258 ft 270 kts 159°
2026-05-04 19:38 30.47306 -86.35071 4651 ft 268 kts 157°
2026-05-04 19:38 30.45807 -86.33848 4235 ft 261 kts 129°
2026-05-04 19:38 30.44856 -86.32106 4111 ft 252 kts 120°
2026-05-04 19:38 30.44046 -86.30349 3982 ft 243 kts 118°
2026-05-04 19:39 30.43275 -86.28647 3862 ft 234 kts 119°
2026-05-04 19:39 30.42543 -86.27007 3733 ft 224 kts 119°
2026-05-04 19:39 30.41835 -86.25437 3611 ft 217 kts 123°
2026-05-04 19:39 30.40770 -86.24290 3471 ft 207 kts 158°
2026-05-04 19:40 30.39398 -86.24112 3354 ft 197 kts 195°
2026-05-04 19:40 30.38276 -86.24915 3134 ft 191 kts 232°
2026-05-04 19:40 30.37617 -86.26258 3027 ft 194 kts 244°
2026-05-04 19:40 30.37073 -86.27693 3016 ft 196 kts 245°
2026-05-04 19:41 30.36707 -86.29206 3013 ft 197 kts 264°
2026-05-04 19:41 30.36859 -86.30783 3016 ft 199 kts 287°
2026-05-04 19:41 30.37472 -86.32184 3046 ft 194 kts 298°
2026-05-04 19:41 30.38145 -86.33536 2966 ft 194 kts 298°
2026-05-04 19:42 30.38812 -86.34879 2793 ft 190 kts 299°
2026-05-04 19:42 30.39460 -86.36186 2601 ft 184 kts 298°
2026-05-04 19:42 30.40089 -86.37452 2413 ft 179 kts 297°
2026-05-04 19:42 30.40699 -86.38683 2221 ft 174 kts 298°
2026-05-04 19:43 30.41291 -86.39878 2034 ft 170 kts 297°
2026-05-04 19:43 30.41877 -86.41059 1854 ft 169 kts 297°
2026-05-04 19:43 30.42459 -86.42235 1668 ft 168 kts 297°
2026-05-04 19:43 30.43039 -86.43407 1479 ft 167 kts 297°
2026-05-04 19:44 30.43618 -86.44575 1300 ft 166 kts 297°
2026-05-04 19:44 30.44188 -86.45727 1111 ft 161 kts 296°
2026-05-04 19:44 30.44728 -86.46816 935 ft 153 kts 297°
2026-05-04 19:44 30.45252 -86.47879 757 ft 151 kts 297°
2026-05-04 19:45 30.45777 -86.48940 587 ft 152 kts 297°
2026-05-04 19:45 30.46303 -86.50004 414 ft 152 kts 297°
2026-05-04 19:45 30.46833 -86.51078 262 ft 154 kts 296°
2026-05-04 19:45 30.47364 -86.52156 116 ft 153 kts 297°
2026-05-04 19:46 30.47848 -86.53140 98 ft 122 kts 302°
2026-05-04 19:46 30.48186 -86.53824 104 ft 79 kts 299°
2026-05-04 19:46 30.48428 -86.54316 100 ft 62 kts 301°
2026-05-04 19:46 30.48620 -86.54701 106 ft 48 kts 300°
2026-05-04 19:47 30.48766 -86.54999 106 ft 36 kts 303°
2026-05-04 19:47 30.48856 -86.55162 103 ft 13 kts 323°
2026-05-04 19:47 30.48944 -86.55155 103 ft 14 kts 30°
2026-05-04 19:47 30.49034 -86.55096 103 ft 16 kts 30°
2026-05-04 19:48 30.49146 -86.55021 100 ft 21 kts 30°
2026-05-04 19:48 30.49285 -86.54983 95 ft 11 kts
2026-05-04 19:48 30.49316 -86.54996 95 ft 4 kts 316°
2026-05-04 19:48 30.49329 -86.55031 96 ft 6 kts 291°
2026-05-04 19:49 30.49347 -86.55050 96 ft 3 kts 17°
2026-05-04 19:49 30.49367 -86.55029 95 ft 5 kts 45°
2026-05-04 19:49 30.49383 -86.55010 95 ft 2 kts 45°
2026-05-04 19:49 30.49391 -86.55001 95 ft 1 kts 45°
2026-05-04 19:50 30.49394 -86.54998 95 ft 0 kts 45°